www.pogodaiklimat.ru

Погода и климат >> Архив погоды >> Россия >> Саратовская область >> Красный Кут


ПОГОДА в Красном Куте

  • Прогноз погоды в Красном Куте
  • Монитор погоды в Красном Куте

АРХИВ ПОГОДЫ в Красном Куте

Время (UTC), дата Ветер
(напр.,м/с)
 
Видим.   Явления Облачность Т
(С)
Тd
(С)
f
(%)
Тe
(С)
Тes
(С)
Комфортность P
(гПа)
Po
(гПа)
Тmin
(С)
Tmax
(С)
R
(мм)
R24
(мм)
S
(см)
03 13.05 В 1 10 км 4/0
[Ac trans]
+17.6 +12.3 71 +19 +20 1015.4 1009.5 +15.2
06 13.05 ЮВ 2 10 км ясно +28.3 +10.2 32 +29 +39 жарко 1015.1 1009.5
09 13.05 В 3-10
{10}
10 км {ливн. осадки} 10/10 1500 м
[Cb cap]
+28.1 +10.9 34 +29 +29 жарко 1015.3 1009.7
12 13.05 В 3
{11}
10 км {ливн. осадки} 10/4 1500 м
[Sc Ac trans Ci fib]
+30.5 +10.4 29 +30 +33 жарко 1014.4 1008.8
15 13.05 В 2 10 км 10/6 1500 м
[Cb cap Ac trans Ci fib]
+28.2 +8.8 30 +28 +28 жарко 1013.5 1007.8 +30.5 0.0
18 13.05 СВ 2 10 км 8/8 1500 м
[Cb cap]
+22.3 +13.1 56 +25 +25 комфорт 1013.9 1008.1
21 13.05 СВ 3 10 км 8/8 1500 м
[Cb cap]
+21.4 +11.2 52 +23 +23 комфорт 1012.8 1007.0
00 14.05 СВ 2 10 км 8/4 1500 м
[Cb cap Ac trans]
+18.1 +11.0 63 +19 +19 1011.5 1005.7
03 14.05 В 2 10 км 6/3 1500 м
[Sc Ac trans]
+18.0 +12.4 70 +19 +19 1011.6 1005.7 +17.0
06 14.05 В 1 10 км 4/0
[Ac trans]
+23.7 +14.4 56 +26 +36 жарко 1011.4 1005.7
09 14.05 СВ 2 10 км 9/0
[Ac trans]
+28.8 +13.7 40 +31 +38 жарко 1010.4 1004.8
12 14.05 В 3 10 км 8/6 1500 м
[Sc Ac trans]
+30.0 +8.3 26 +29 +32 жарко 1009.1 1003.5
15 14.05 В 1
{14}
10 км {гроза} 6/0
[Ac trans]
+28.3 +13.2 39 +30 +31 жарко 1009.2 1003.6 +31.4 2
18 14.05 В 1 10 км {гроза, ливн. осадки} 4/4 1500 м
[Sc]
+18.6 +15.7 83 +21 +21 комфорт 1010.6 1004.8
21 14.05 СВ 2 10 км 4/4 1500 м
[Sc]
+17.8 +12.2 70 +18 +18 1010.5 1004.7
00 15.05 С 1 10 км ясно +13.1 +11.2 88 +13 +13 1011.0 1005.1
03 15.05 С 2 10 км ясно +17.5 +13.1 75 +18 +20 1011.6 1005.8 +11.1
06 15.05 СВ 2 10 км 3/0
[Ci fib]
+25.4 +14.1 50 +28 +38 жарко 1012.4 1006.7
09 15.05 С 1 10 км 3/3 1500 м
[Cu hum]
+30.2 +11.9 32 +31 +44 жарко 1012.4 1006.8
12 15.05 Ю 2 10 км 8/8 1500 м
[Cb cap]
+30.7 +9.3 26 +30 +32 жарко 1011.7 1006.1
15 15.05 ЮЗ 2 10 км гроза, ливневой дождь 10/10 1500 м
[Cb cap]
+24.7 +11.8 44 +26 +26 жарко 1014.6 1008.8 +32.3 0.3
18 15.05 В 1 10 км {гроза, ливн. осадки} 6/6 1500 м
[Cb cap]
+21.3 +13.7 62 +24 +24 комфорт 1014.0 1008.2
21 15.05 штиль 0 10 км 6/0
[Ac trans]
+17.4 +14.6 84 +17 +17 1014.4 1008.5
00 16.05 ЮЗ 1 10 км 4/0
[Ac trans]
+15.6 +14.7 94 +16 +16 1014.8 1008.9
03 16.05 В 1 10 км 3/0
[Ci fib]
+18.7 +14.8 78 +21 +23 комфорт 1014.5 1008.7 +13.5 3
06 16.05 ЮЗ 1 10 км ясно +25.6 +14.6 51 +28 +41 жарко 1014.8 1009.1
09 16.05 Ю 2 10 км 3/3 1500 м
[Cu hum]
+29.0 +13.4 38 +31 +42 жарко 1014.2 1008.6
12 16.05 З 4 10 км 4/4 1500 м
[Cu hum]
+30.4 +13.3 35 +32 +36 жарко 1013.3 1007.7
15 16.05 З 3
{10}
10 км 3/0
[Ac trans]
+27.8 +13.2 41 +30 +30 жарко 1012.9 1007.3 +30.4
18 16.05 СЗ 3 10 км 3/0
[Ac trans]
+21.2 +14.1 64 +24 +24 комфорт 1013.7 1008.0
21 16.05 СВ 2 10 км 4/0
[Ac trans]
+18.7 +15.9 84 +20 +20 1015.1 1009.3
00 17.05 С 3 10 км 3/0
[Ac trans]
+15.0 +14.0 94 +14 +14 1015.8 1009.9
03 17.05 С 7-11
{11}
10 км 8/4
[Cb calv Ac trans]
+15.7 +11.6 77 +14 +14 1017.3 1011.4 +14.2
06 17.05 С 7-10
{13}
10 км 6/6 1500 м
[Cu hum]
+16.8 +10.1 65 +16 +17 1018.5 1012.6
09 17.05 С 6
{12}
10 км 6/0
[Ac trans Ci fib]
+19.3 +4.7 38 +19 +24 1018.7 1012.8
12 17.05 С 5
{11}
10 км 6/0
[Ac trans Ci fib]
+19.9 +4.7 37 +20 +24 1018.1 1012.2
15 17.05 С 4 10 км ясно +18.6 +3.5 37 +19 +20 1018.0 1012.1 +20.2
18 17.05 штиль 0 10 км ясно +9.5 +4.1 69 +9 +9 1018.2 1012.1
21 17.05 штиль 0 10 км ясно +6.1 +3.3 82 +5 +5 1018.0 1011.9
00 18.05 штиль 0 10 км ясно +3.0 +2.3 95 +2 +2 1018.5 1012.3
03 18.05 штиль 0 10 км ясно +9.3 +5.2 76 +9 +11 1018.8 1012.8 +2.0
06 18.05 СЗ 1 10 км ясно +17.9 +4.6 41 +19 +32 опасность
простуды
1017.0 1011.1
09 18.05 СЗ 5
{10}
10 км 3/0
[Ci fib]
+20.8 +3.6 32 +21 +29 комфорт 1015.9 1010.1
12 18.05 СЗ 4 10 км 3/0
[Ci fib]
+21.5 +3.7 31 +22 +28 комфорт 1014.0 1008.2
15 18.05 СЗ 4 10 км ясно +20.7 +4.4 34 +21 +22 комфорт 1012.5 1006.7 +22.1
18 18.05 ЮЗ 1 10 км ясно +13.0 +4.8 57 +13 +13 1012.5 1006.5
21 18.05 З 1 10 км ясно +11.3 +4.5 63 +11 +11 1012.0 1006.0
00 19.05 С 1 10 км ясно +8.1 +4.4 77 +7 +7 1012.0 1006.0
03 19.05 С 3 10 км ясно +11.8 +5.3 64 +10 +12 1012.7 1006.8 +6.6
06 19.05 С 5 10 км ясно +18.6 +2.7 35 +18 +24 1012.8 1006.9
09 19.05 СЗ 5 10 км 3/0
[Ac trans]
+21.2 +1.6 27 +21 +28 комфорт 1012.0 1006.3
12 19.05 З 5-10
{11}
10 км 4/4 1500 м
[Cu hum]
+22.6 +3.8 29 +23 +26 комфорт 1010.7 1005.0
15 19.05 С 9-12
{14}
10 км 3/0
[Ac trans]
+19.9 +3.0 33 +20 +20 1010.7 1004.9 +22.8
18 19.05 С 5
{13}
10 км ясно +13.9 -1.2 35 +12 +12 1014.0 1008.1
21 19.05 С 3 10 км ясно +6.9 +0.3 63 +4 +4 1016.4 1010.3
00 20.05 СВ 2 10 км ясно +5.8 -0.1 66 +4 +4 1017.6 1011.5

 

Местоположение метеостанции Красный Кут (Саратовская область, Россия): широта 50.95 долгота 46.97 высота над уровнем моря 50 м.

В архиве по умолчанию представлена погода в Красном Куте за последнюю неделю. Архивные данные за месяц целиком и за предыдущие месяцы, начиная с января 2011 года, Вы можете получить, выбрав интересующий диапазон дат из раскрывающегося списка и нажав кнопку "Ввод!".


*Определитесь, кто Вы:
робот инопланетянин человек

Внимание! Время в таблицах - всемирное. Для получения местного времени необходимо прибавить поправку, которая равна 4 ч.

Смотрите также архив погоды в соседних городах и на ближайших метеорологических станциях:

Погода в Маркс (Саратовская область, Россия) (85 км)
Погода в Саратове (Саратовская область, Россия) (95 км)
Погода в Саратове ЮВ (Саратовская область, Россия) (97 км)
Погода в Новоузенске (Саратовская область, Россия) (100 км)
Погода в Палласовке (Волгоградская область, Россия) (100 км)
Погода в Ершове (Саратовская область, Россия) (104 км)
Погода в Сплавнухе (Саратовская область, Россия) (112 км)
Погода в Октябрьском Городке (Саратовская область, Россия) (130 км)
Погода в Балаково (Саратовская область, Россия) (133 км)
Погода в Александровом Гае (Саратовская область, Россия) (143 км)

Пояснения к столбцам:

Ветер - указаны скорость ветра в м/с - средняя за 10 мин, порывы в срок и между сроками (в фигурных скобках) и направление, откуда дует ветер: С - северный, СВ - северо-восточный, В - восточный, ЮВ - юго-восточный, Ю - южный, ЮЗ - юго-западный, З - западный, СЗ - северо-западный.
Видимость - горизонтальная дальность видимости в метрах или километрах. При видимости от 1 до 10 км при отсутствии осадков обычно наблюдается дымка, при ухудшении видимости до 1 км и менее - туман. В сухую погоду видимость может ухудшаться дымом, пылью или мглою.
Явления - указаны атмосферные явления, наблюдавшиеся в срок или в последний час перед сроком; фигурными скобками обозначены явления, наблюдавшиеся между сроками (за 1-3 часа до срока); квадратными скобками обозначены град или гололедные отложения с указанием их диаметра в мм.
Облачность - указаны через наклонную черту общая и нижняя облачность в баллах и высота нижней границы облаков в метрах; квадратными скобками обозначены формы облаков: Ci - перистые, Cs - перисто-слоистые, Cc - перисто-кучевые, Ac - высококучевые, As - высокослоистые, Sc - слоисто-кучевые, Ns - слоисто-дождевые, Cu - кучевые, Cb - кучево-дождевые. Подробнее классификацию облаков см. в Атласе облаков (PDF).
T - Температура воздуха - температура, измеренная на высоте 2 м над землей.
Td - Температура точки росы - температура, при понижении до которой содержащийся в воздухе водяной пар достигнет насыщения.
f - Относительная влажность воздуха - влажноcть воздуха, измеренная на высоте 2 м над землей.
Te - Эффективная температура - температура, которую ощущает одетый по сезону человек в тени. Характеристика душности погоды. При расчете учитывается влияние влажности воздуха и скорости ветра на теплоощущения человека.
Tes - Эффективная температура на солнце - температура, которую ощущает человек, с поправкой на солнечный нагрев. Характеристика знойности погоды. Зависит от высоты солнца над горизонтом, облачности и скорости ветра. Ночью, в пасмурную погоду, а также при ветре 12 м/с и более поправка равна нулю.
P - Атмосферное давление - приведенное к уровню моря атмосферное давление.
Po - Атмосферное давление - измеренное на уровне метеостанции атмосферное давление.
Tmin - Минимальная температура - минимум температуры воздуха на высоте 2 м над землей.
Tmax - Максимальная температура - максимум температуры воздуха на высоте 2 м над землей.
R - Количество осадков - Количество выпавших осадков за период времени, мм. При наведении курсора мыши на число - период времени, за который выпало указанное количество осадков.
R24 - Количество осадков - Количество выпавших осадков за 24 часа, мм.
S - Снежный покров - Высота снежного покрова, см. При наведении курсора мыши на число - состояние снежного покрова и степень покрытия местности в баллах.